Change the Weather History Date:

Tuesday, April 30, 2013

  Actual Average Record
Temperature  
Mean Temperature 60 °F -  
Max Temperature 64 °F 66 °F 84 °F (2007)
Min Temperature 53 °F 48 °F 39 °F (2001)
Degree Days  
Heating Degree Days 6    
Growing Degree Days 10 (Base 50)    
Moisture  
Dew Point 52 °F    
Average Humidity 84    
Maximum Humidity 100    
Minimum Humidity 39    
Precipitation  
Precipitation 0.00 in - - ()
Sea Level Pressure  
Sea Level Pressure 30.20 in    
Wind  
Wind Speed 7 mph (ENE)    
Max Wind Speed 10 mph    
Max Gust Speed 16 mph    
Visibility 7 miles    
Events Rain    
Averages and records for this station are not official NWS values.
T = Trace of Precipitation, MM = Missing Value Source: NWS Daily Summary

Daily Weather History Graph

Daily Weather History Graph

Search for Another Location

Airport or City:

Trip Planner

Search our weather history database for the weather conditions in past years. The results will help you decide how hot, cold, wet, or windy it might be!

Date:

Astronomy

Apr. 30, 2013 Rise Set
Actual Time 6:07 AM EDT 7:58 PM EDT
Civil Twilight 5:39 AM EDT 8:27 PM EDT
Nautical Twilight 5:04 AM EDT 9:02 PM EDT
Astronomical Twilight 4:26 AM EDT 9:40 PM EDT
Moon 12:19 AM EDT (4/30) 10:34 AM EDT (4/30)
Length of Visible Light 14h 48m
Length of Day
13h 50m
Waning Gibbous, 70% of the Moon is Illuminated
Apr 30
Waning Gibbous
May 2
Last Quarter
May 9
New
May 18
First Quarter
May 25
Full

Hourly Weather History & Observations

Time (EDT) Temp. Dew Point Humidity Pressure Visibility Wind Dir Wind Speed Gust Speed Precip Events Conditions
12:03 AM 55.4 °F 53.6 °F 94% 30.14 in 10.0 mi NE 6.9 mph - N/A   Overcast
12:24 AM 55.4 °F 53.6 °F 94% 30.14 in 10.0 mi ENE 4.6 mph - N/A   Overcast
12:42 AM 55.4 °F 53.6 °F 94% 30.14 in 10.0 mi NE 6.9 mph - N/A   Overcast
1:03 AM 55.4 °F 53.6 °F 94% 30.14 in 10.0 mi ENE 8.1 mph - N/A   Overcast
1:24 AM 55.4 °F 53.6 °F 94% 30.13 in 7.0 mi NE 5.8 mph - N/A   Overcast
1:42 AM 55.4 °F 55.4 °F 100% 30.13 in 10.0 mi ENE 4.6 mph - N/A   Overcast
2:03 AM 55.4 °F 55.4 °F 100% 30.13 in 7.0 mi ENE 5.8 mph - N/A   Overcast
2:24 AM 55.4 °F 55.4 °F 100% 30.13 in 5.0 mi NE 8.1 mph - N/A   Overcast
2:42 AM 55.4 °F 55.4 °F 100% 30.13 in 10.0 mi ENE 5.8 mph - N/A   Overcast
3:03 AM 55.4 °F 55.4 °F 100% 30.13 in 3.0 mi NE 5.8 mph - N/A   Overcast
3:24 AM 55.4 °F 55.4 °F 100% 30.12 in 3.0 mi NE 4.6 mph - N/A   Drizzle
3:42 AM 55.4 °F 55.4 °F 100% 30.13 in 3.0 mi NE 5.8 mph - N/A   Drizzle
4:03 AM 55.4 °F 55.4 °F 100% 30.13 in 3.0 mi NE 8.1 mph - N/A   Drizzle
4:24 AM 55.4 °F 55.4 °F 100% 30.13 in 4.0 mi NE 5.8 mph - N/A   Light Drizzle
4:42 AM 55.4 °F 55.4 °F 100% 30.13 in 5.0 mi NE 5.8 mph - N/A   Overcast
5:03 AM 55.4 °F 55.4 °F 100% 30.14 in 5.0 mi NNE 6.9 mph - N/A   Overcast
5:24 AM 55.4 °F 55.4 °F 100% 30.15 in 5.0 mi NE 6.9 mph - N/A   Overcast
5:36 AM 55.4 °F 55.4 °F 100% 30.15 in 5.0 mi NE 5.8 mph - N/A Rain Rain
5:50 AM 55.4 °F 55.4 °F 100% 30.15 in 2.0 mi ENE 10.4 mph - N/A Rain Light Rain
6:50 AM 55.4 °F 55.4 °F 100% 30.18 in 2.5 mi ENE 10.4 mph - N/A   Drizzle
7:45 AM 55.4 °F 55.4 °F 100% 30.21 in 5.0 mi ENE 10.4 mph - N/A   Overcast
8:45 AM 55.4 °F 55.4 °F 100% 30.22 in 5.0 mi ENE 9.2 mph - N/A   Overcast
9:50 AM 57.2 °F 55.4 °F 94% 30.23 in 6.0 mi ENE 8.1 mph - N/A   Overcast
10:45 AM 59.0 °F 55.4 °F 88% 30.23 in 7.0 mi ENE 9.2 mph - N/A   Overcast
11:50 AM 59.0 °F 55.4 °F 88% 30.23 in 7.0 mi ENE 5.8 mph - N/A   Overcast
12:45 PM 62.6 °F 55.4 °F 77% 30.23 in 7.0 mi ENE 5.8 mph - N/A   Overcast
1:05 PM 62.6 °F 53.6 °F 72% 30.23 in 7.0 mi East 3.5 mph - N/A   Overcast
1:45 PM 62.6 °F 55.4 °F 77% 30.23 in 7.0 mi ENE 3.5 mph - N/A Rain Rain
2:06 PM 62.6 °F 55.4 °F 77% 30.23 in 7.0 mi ESE 9.2 mph - N/A   Drizzle
2:45 PM 62.6 °F 55.4 °F 77% 30.23 in 7.0 mi ESE 8.1 mph - N/A   Overcast
3:45 PM 64.4 °F 53.6 °F 68% 30.23 in 7.0 mi East 8.1 mph - N/A   Overcast
4:45 PM 62.6 °F 55.4 °F 77% 30.25 in 7.0 mi SE 9.2 mph 16.1 mph N/A   Overcast
5:45 PM 64.4 °F 53.6 °F 68% 30.25 in 7.0 mi East 8.1 mph - N/A   Mostly Cloudy
6:50 PM 64.4 °F 50.0 °F 59% 30.26 in 10.0 mi East 4.6 mph - N/A   Mostly Cloudy
7:45 PM 62.6 °F 48.2 °F 59% 30.27 in 10.0 mi East 6.9 mph - N/A   Mostly Cloudy
9:45 PM 59.0 °F 41.0 °F 51% 30.30 in 10.0 mi East 4.6 mph - N/A   Mostly Cloudy
10:27 PM 57.2 °F 37.4 °F 48% 30.30 in 10.0 mi ENE 8.1 mph - N/A   Clear
10:45 PM 59.0 °F 33.8 °F 39% 30.31 in 10.0 mi ENE 5.8 mph - N/A   Clear
11:06 PM 57.2 °F 33.8 °F 41% 30.31 in 10.0 mi NE 4.6 mph - N/A   Scattered Clouds
11:27 PM 57.2 °F 33.8 °F 41% 30.31 in 10.0 mi NE 3.5 mph - N/A   Scattered Clouds
11:45 PM 53.6 °F 37.4 °F 54% 30.31 in 10.0 mi Calm Calm - N/A   Clear